This is the latest recevied weather packets stored in our database for station/object VA3ZFM-10. If no packets are shown the sender has not sent any weather packets the latest 10 day(s).
| Time | Temp. | Humidity | Pressure | Rain* | Wind** | Luminosity | Snow |
|---|---|---|---|---|---|---|---|
| 1778162306 | 5.56° C | 51% | 1009.9 hPa | 0 mm | - | - | - |
| 1778162002 | 5.56° C | 51% | 1009.7 hPa | 0 mm | - | - | - |
| 1778161700 | 5.56° C | 51% | 1009.6 hPa | 0 mm | - | - | - |
| 1778161396 | 5.56° C | 52% | 1009.6 hPa | 0 mm | - | - | - |
| 1778161091 | 5.56° C | 52% | 1009.9 hPa | 0 mm | - | - | - |
| 1778160788 | 5° C | 54% | 1009.9 hPa | 0 mm | - | - | - |
| 1778160486 | 5.56° C | 53% | 1009.7 hPa | 0 mm | - | - | - |
| 1778160182 | 5° C | 54% | 1010 hPa | 0 mm | - | - | - |
| 1778159879 | 4.44° C | 55% | 1009.6 hPa | 0 mm | - | - | - |
| 1778159576 | 4.44° C | 56% | 1009.7 hPa | 0 mm | - | - | - |
| 1778159273 | 4.44° C | 57% | 1009.9 hPa | 0 mm | - | - | - |
| 1778158970 | 4.44° C | 58% | 1009.6 hPa | 0 mm | - | - | - |
| 1778158669 | 3.89° C | 58% | 1009.9 hPa | 0 mm | - | - | - |
| 1778158366 | 4.44° C | 59% | 1009.7 hPa | 0 mm | - | - | - |
| 1778158063 | 3.89° C | 61% | 1009.9 hPa | 0 mm | - | - | - |
| 1778157760 | 3.89° C | 62% | 1009.5 hPa | 0 mm | - | - | - |
| 1778157458 | 3.89° C | 63% | 1009.9 hPa | 0 mm | - | - | - |
| 1778157155 | 3.89° C | 65% | 1009.7 hPa | 0 mm | - | - | - |
| 1778156850 | 3.33° C | 66% | 1009.9 hPa | 0 mm | - | - | - |
| 1778156547 | 3.89° C | 67% | 1010 hPa | 0 mm | - | - | - |
| 1778156242 | 2.78° C | 69% | 1009.7 hPa | 0 mm | - | - | - |
| 1778155938 | 2.78° C | 70% | 1010 hPa | 0 mm | - | - | - |
| 1778155635 | 2.78° C | 71% | 1010 hPa | 0 mm | - | - | - |
| 1778155332 | 2.78° C | 71% | 1009.6 hPa | 0 mm | - | - | - |
| 1778155028 | 2.22° C | 72% | 1009.9 hPa | 0 mm | - | - | - |
* Rain latest hour (hover to see other rain measurements)
** Current wind speed in m/s (hover to see current wind gust speed)